Location: La Pernelle
(49.6188°N, 1.2999°W)
Time: 10:01:32
(UTC+00:00)

Meteor 2-20 - Pass Details

Date: 30 October 2021
Orbit: 939 x 958 km, 82.5° (Epoch: 08 December)

Event Time Altitude Azimuth Distance (km) Brightness Sun altitude
Rises 04:09:23 0° 164° (SSE) 3,602 7.5 -26.5°
Reaches altitude 10° 04:12:00 10° 158° (SSE) 2,659 6.9 -26.1°
Maximum altitude 04:17:38 41° 90° (E) 1,332 5.6 -25.2°
Drops below altitude 10° 04:23:16 10° 22° (NNE) 2,668 7.1 -24.3°
Sets 04:25:53 0° 15° (NNE) 3,616 7.8 -23.9°
